Location: *
(50.3194°N, 7.1067°E)
Time: 14:23:07
(UTC+00:00)

Daily predictions for brighter satellites

Satellite Brightness Start Highest point End
(mag) Time Altitude Azimuth Time Altitude Azimuth Time Altitude Azimuth
ARGOS 4.4 17:59:19 10° ESE 18:03:24 23° ENE 18:07:32 10° N
Meteor 1-4 Rocket 3.5 18:02:34 10° N 18:05:38 27° ENE 18:08:39 10° SE
Cosmos 2151 Rocket 3.9 18:01:19 10° SSW 18:05:42 71° WNW 18:10:07 10° N
USA 186 3.2 18:06:19 10° ESE 18:09:02 22° ENE 18:11:45 10° NNE
Cosmos 2227 Rocket 3.1 18:05:50 10° SSE 18:10:25 26° ESE 18:15:03 10° NE
Cosmos 1455 Rocket 4.4 18:08:17 10° SE 18:11:30 20° E 18:14:43 10° NE
YAOGAN 6 3.8 18:10:02 10° S 18:13:36 47° W 18:17:13 10° NNW
Timation 2 Rocket 4.3 18:07:07 10° SW 18:13:40 78° WNW 18:19:58 10° NNE
CZ-2D R/B 3.2 18:10:01 10° SSE 18:13:48 82° ENE 18:17:38 10° NNW
CZ-4 R/B 2.9 18:10:56 10° S 18:14:38 40° W 18:18:27 10° NNW
SJ-6B 3.9 18:11:57 10° SE 18:15:27 28° ENE 18:18:55 10° N
SPOT 3 Rocket 4.2 18:11:04 10° SE 18:15:40 34° ENE 18:20:19 10° N
Cosmos 2219 3.5 18:10:32 10° S 18:16:00 46° ESE 18:21:28 10° NE
Cosmos 1371 Rocket 4.5 18:11:12 10° S 18:16:06 39° ESE 18:21:05 10° NE
Meteor 2-9 Rocket 4.5 18:11:15 10° SSW 18:16:59 78° WNW 18:22:35 10° N
Cosmos 2297 Rocket 2.8 18:15:32 10° SSE 18:20:29 32° ESE 18:25:28 10° NE
Cosmos 676 Rocket 4.3 18:19:33 10° NNW 18:24:41 48° ENE 18:29:43 10° SE
USA 116 4.3 18:24:19 10° N 18:28:12 58° WNW 18:31:37 10° SSW
Cosmos 1023 Rocket 4.5 18:24:04 10° NNW 18:29:13 63° ENE 18:34:16 10° SE
Lacrosse 5 rocket 2.0 18:31:39 10° SSW 18:34:50 29° SE 18:37:12 15° E
MOS 1 4.3 18:29:26 10° SSE 18:35:07 75° ENE 18:40:49 10° NNW
In-Cosmos 22 4.1 18:30:34 10° N 18:35:56 68° ENE 18:41:24 10° SSE
Okean 1 Rocket 3.2 18:32:08 10° SSW 18:36:29 77° W 18:40:54 10° N
GENESIS II 4.4 18:32:53 10° NW 18:37:01 82° SW 18:40:52 11° SE
Cosmos 405 Rocket 3.0 18:33:55 10° SSE 18:37:22 40° E 18:40:54 10° NNE
Cosmos 1461 4.2 18:34:35 10° WSW 18:38:20 39° NW 18:42:05 10° NNE
Cosmos 2341 Rocket 4.0 18:32:22 10° N 18:38:39 74° E 18:44:51 10° SSE
Cosmos 2181 Rocket 4.3 18:34:07 10° SSE 18:40:04 47° E 18:46:07 10° NNE
Cosmos 1190 Rocket 4.1 18:35:24 10° NNW 18:40:44 85° WSW 18:46:00 10° SSE
Cosmos 1939 Rocket 3.4 18:37:19 10° S 18:41:07 58° WSW 18:44:58 10° NNW
H-2A R/B 2.4 18:40:24 12° SE 18:44:43 43° ENE 18:49:32 10° N
Cosmos 1437 Rocket 3.2 18:42:30 10° N 18:46:06 38° ENE 18:48:19 19° SE
Cosmos 1674 3.3 18:43:05 10° N 18:46:31 33° ENE 18:48:20 21° ESE
Cosmos 614 Rocket 4.2 18:41:40 10° NNW 18:46:53 72° WSW 18:52:02 10° SSE
Cosmos 2237 Rocket 2.6 18:43:44 10° NNW 18:49:24 65° WSW 18:55:01 10° SSE
Cosmos 2333 Rocket 4.2 18:44:41 10° NW 18:49:28 28° WSW 18:54:16 10° SSW
Resurs 1-3 4.4 18:47:34 19° ESE 18:49:58 33° ENE 18:53:55 10° N
Meteor 1-15 Rocket 4.2 18:44:53 10° S 18:50:39 71° E 18:56:32 10° NNE
Cosmos 2366 rocket 4.2 18:45:06 10° N 18:51:22 55° ENE 18:57:34 10° SSE
ADEOS Rocket 3.9 18:45:09 10° NNE 18:52:05 40° E 18:59:18 10° SSE
Cosmos 2218 Rocket 4.1 18:45:55 10° N 18:52:14 59° ENE 18:58:26 10° SSE
Meteor 1-24 Rocket 4.0 18:52:45 10° N 18:58:27 53° ENE 19:03:14 15° SE
Ariane Rocket 4.0 18:54:08 10° S 18:59:01 48° W 19:03:57 10° NNW
Cosmos 1980 4.5 18:54:01 10° NW 18:59:30 52° WSW 19:04:57 10° S
SL-8 Rocket 3.9 18:53:31 10° N 18:59:45 76° E 19:05:54 10° SSE
Cosmos 389 Rocket 3.4 18:56:54 10° NNW 19:00:14 49° W 19:03:33 10° S
FREGAT/IRIS 3.2 18:58:09 10° S 19:00:55 53° W 19:03:41 10° NNW
CZ-2C R/B 3.5 18:59:45 10° NNE 19:04:12 67° ESE 19:08:36 10° S
Resurs 01 Rocket 2.3 19:02:49 26° ESE 19:04:29 36° ENE 19:08:33 10° N
SJ-11-01 4.4 19:00:23 10° S 19:05:08 79° WSW 19:09:55 10° NNW
EO 1 Delta rocket 4.4 18:59:46 10° S 19:06:04 77° W 19:11:11 10° NNW
Cosmos 1892 Rocket 3.9 19:03:22 10° NNW 19:07:50 69° W 19:12:11 10° S
Cosmos 407 Rocket 4.5 19:03:49 10° NW 19:08:43 46° WSW 19:13:34 10° S
Cosmos 1805 3.5 19:06:58 23° SSE 19:08:58 43° E 19:12:41 10° NNE
USA 234 3.8 19:03:14 10° ENE 19:09:37 57° NNW 19:16:01 10° W
SAR-Lupe-2 3.6 19:06:17 10° NNE 19:09:54 79° WNW 19:13:27 10° SSW
Cosmos 1959 Rocket 4.4 19:05:48 10° N 19:11:57 77° E 19:18:08 10° SSE
Cosmos 2056 Rocket 3.6 19:09:07 10° SSW 19:14:33 88° WNW 19:19:59 10° NNE
ASTEX 1 3.7 19:09:51 10° N 19:14:43 69° W 19:19:34 10° SSW
Cosmos 1420 Rocket 4.2 19:12:25 10° S 19:17:30 49° ESE 19:22:38 10° NNE
CZ-4C R/B 4.1 19:13:33 10° NW 19:18:49 27° N 19:24:41 11° ENE
KORONAS-FOTON 3.6 19:17:27 10° N 19:21:15 72° E 19:22:29 40° SSE
SL-16 R/B 2.2 19:16:46 10° NNW 19:22:29 87° WSW 19:26:04 24° SSE
CZ-2C R/B 4.2 19:18:27 10° NE 19:21:05 19° ENE 19:21:05 19° ENE
Cosmos 1140 Rocket 4.3 19:19:43 10° NNW 19:24:43 50° WSW 19:29:39 10° S
Cosmos 1624 Rocket 4.2 19:20:39 10° SSW 19:25:50 71° WNW 19:31:04 10° NNE
ERBS 3.0 19:23:40 10° WNW 19:26:56 45° SW 19:27:33 39° S
ISS -3.8 19:23:41 10° WSW 19:26:55 65° SSE 19:26:55 65° SSE
RESURS DK-1 2.5 19:22:53 10° NNW 19:27:00 57° NE 19:27:47 47° E
SL-8 R/B 3.7 19:23:53 10° W 19:28:39 67° S 19:30:07 43° ESE
SL-08 RB Rocket 3.7 19:26:58 33° SSE 19:29:00 71° ENE 19:33:40 10° N
Cosmos 1741 Rocket 4.1 19:23:51 10° NNW 19:29:10 63° ENE 19:31:10 37° SE
Cosmos 1626 3.4 19:26:26 10° N 19:28:57 27° NE 19:28:57 27° NE
Cosmos 2084 Rocket 3.5 19:26:51 10° SW 19:31:20 84° NW 19:35:37 11° NE
Meteor 2-5 Rocket 4.1 19:27:13 10° NNW 19:33:02 68° W 19:38:54 10° S
Spot 2 Rocket 3.9 19:34:39 40° E 19:35:37 45° ENE 19:40:25 10° N
Cosmos 1733 3.9 19:39:11 38° NE 19:39:11 38° NE 19:41:50 10° NNE
Cosmos 2082 3.6 19:33:35 10° SSW 19:39:18 75° ESE 19:45:02 10° NNE
USA 186 3.8 19:36:55 11° SSW 19:39:50 30° W 19:42:54 10° NNW
Meteor 1-22 Rocket 4.3 19:35:15 10° S 19:41:21 77° E 19:47:26 10° NNE
Terra 3.8 19:42:20 15° NE 19:42:20 15° NE 19:44:33 10° NNE
ARGOS 3.3 19:39:17 19° S 19:43:11 71° WSW 19:48:36 10° NNW
Cosmos 1544 Rocket 4.0 19:44:22 10° SSW 19:48:47 62° WNW 19:53:13 10° N
Cosmos 1455 Rocket 3.9 19:44:38 10° SSW 19:48:57 51° WNW 19:53:20 10° N
SL-14 R/B 3.4 19:45:27 10° N 19:48:59 58° NE 19:48:59 58° NE
SJ-6B 4.5 19:46:28 11° SSW 19:50:00 33° W 19:53:44 10° NNW
Cosmos 2227 Rocket 2.7 19:48:28 10° SW 19:54:04 62° WNW 19:59:44 10° NNE
DMSP B5D2-2 4.2 19:50:55 10° NNE 19:56:01 53° E 19:56:01 53° E
Cosmos 1934 Rocket 4.3 19:50:25 10° N 19:56:16 44° ENE 19:56:55 43° E
Cosmos 1766 3.9 19:54:23 17° SSW 19:57:14 54° WNW 20:01:05 10° N
MetOp-A 4.2 19:55:16 37° S 19:57:28 79° WSW 20:02:52 10° NNW
CZ-2C R/B 3.2 19:55:55 37° S 19:58:07 80° WSW 20:03:47 10° NNW
Cosmos 2297 Rocket 3.0 19:58:49 10° SW 20:04:20 51° NW 20:09:52 10° NNE
Cosmos 1626 Rocket 4.3 20:01:40 10° NNW 20:05:50 48° W 20:07:10 35° SW
Cosmos 1452 Rocket 3.5 20:03:27 10° SSW 20:08:42 82° WNW 20:14:00 10° NNE
Cosmos 1825 Rocket 4.1 20:08:51 10° N 20:12:10 48° NNE 20:12:10 48° NNE
Lacrosse 5 rocket 2.1 20:10:06 10° WSW 20:12:54 45° WNW 20:12:54 45° WNW
USA 245 4.3 20:14:09 63° ESE 20:14:41 66° ENE 20:20:05 10° N
Cosmos 1943 3.1 20:16:40 10° NNW 20:22:22 68° ENE 20:22:30 67° ENE
H-2A R/B 3.6 20:21:02 15° SSW 20:24:19 30° W 20:28:46 10° NNW
Cosmos 1758 Rocket 4.1 20:19:59 10° N 20:23:21 54° N 20:23:21 54° N
Nadezhda 3 Rocket 3.9 20:30:13 51° SSW 20:31:54 84° W 20:38:11 10° N
ADEOS Rocket 4.1 20:30:36 10° N 20:37:45 56° WNW 20:45:16 10° SW
Resurs 01 Rocket 3.2 20:40:23 29° WSW 20:41:01 30° W 20:44:58 10° NNW
Meteor 1-21 Rocket 4.3 20:35:14 10° NNW 20:41:10 77° W 20:41:30 74° SW
Cosmos 1605 Rocket 4.1 20:35:34 10° N 20:41:34 62° ENE 20:41:34 62° ENE
Cosmos 1821 Rocket 4.3 20:38:23 10° NNW 20:44:26 61° W 20:45:40 51° SW
Cosmos 1535 Rocket 4.4 20:44:32 10° NNW 20:50:57 80° W 20:51:16 77° SW
USA 234 3.8 20:49:56 37° NE 20:52:07 51° N 20:58:25 10° WNW
ERS-1 Rocket 3.7 21:00:53 51° NNW 21:00:53 51° NNW 21:04:38 10° NNW
Cosmos 1603 4.3 20:56:38 10° NW 21:01:45 50° W 21:01:45 50° W
CZ-2C R/B 3.0 20:57:48 10° NNE 21:02:36 63° NNW 21:02:36 63° NNW
SPOT 5 3.9 21:05:28 44° NNW 21:05:28 44° NNW 21:08:55 10° NNW
SL-16 R/B 4.5 21:02:26 10° WNW 21:05:46 16° W 21:07:58 13° WSW
CZ-4C R/B 3.4 21:02:31 10° NW 21:09:00 46° NNE 21:09:50 45° NE
Terra 3.4 21:21:13 32° NNW 21:21:13 32° NNW 21:23:45 10° NNW
Cosmos 2082 Rocket 4.3 21:32:20 10° N 21:35:59 17° NNE 21:36:22 17° NE
Cosmos 2263 Rocket 3.8 22:00:09 29° N 22:00:09 29° N 22:02:56 10° NNE
USA 234 4.2 22:37:17 41° NW 22:37:17 41° NW 22:41:22 10° WNW
CZ-4C R/B 3.9 22:51:00 10° NW 22:55:00 38° WNW 22:55:00 38° WNW
Cosmos 2082 Rocket 4.1 23:15:44 10° NNW 23:18:11 26° NNW 23:18:11 26° NNW
